Location: *
(0.1100°N, 5.5000°E)
Time: 21:58:52
(UTC+00:00)

Hubble Space Telescope - Visible Passes

Search period start: 26 March 2023 00:00
Search period end: 05 April 2023 00:00
Orbit: 527 x 530 km, 28.5° (Epoch: 26 March)

Date Brightness Start Highest point End Pass type
(mag) Time Alt. Az. Time Alt. Az. Time Alt. Az.
26 Mar 2.8 19:02:21 10° W 19:05:31 22° NNW 19:07:46 14° NNE visible
27 Mar 3.7 03:37:11 11° NE 03:37:11 11° NE 03:38:04 10° NE visible
27 Mar 1.0 05:13:36 10° NW 05:17:38 68° NNE 05:21:41 10° ESE visible
27 Mar 3.2 18:49:06 10° WNW 18:51:45 17° NNW 18:54:25 10° NNE visible
28 Mar 3.8 03:24:44 12° ENE 03:24:44 12° ENE 03:25:16 10° ENE visible
28 Mar 0.7 04:59:55 11° WNW 05:03:50 87° SSW 05:07:54 10° ESE visible
28 Mar 3.4 18:36:05 10° NW 18:38:00 13° NNW 18:39:54 10° N visible
29 Mar 0.7 04:47:29 21° WNW 04:50:01 63° SSW 04:54:03 10° SE visible
30 Mar 1.1 04:35:03 35° WSW 04:36:12 46° SSW 04:40:06 10° SE visible
31 Mar 1.6 04:22:35 34° SSW 04:22:35 34° SSW 04:26:05 10° SE visible
01 Apr 2.6 04:10:04 20° S 04:10:04 20° S 04:11:58 10° SSE visible
02 Apr 3.4 03:57:27 11° SSE 03:57:27 11° SSE 03:57:43 10° SSE visible
